Overview Statistics Trail Chart Weather Telemetry Raw packets
 

This is the latest recevied weather packets stored in our database for station/object KN6WGU. If no packets are shown the sender has not sent any weather packets the latest 10 day(s).

<< 20 21 22 23 24 25 26 >>
Time Temp. Humidity Pressure Rain* Wind** Luminosity Snow
1788476475 21.67° C 98% 1010.2 hPa 4.83 mm - 3 W/m² -
1788476173 21.67° C 97% 1010.3 hPa 4.32 mm - 2 W/m² -
1788475869 21.67° C 97% 1010.1 hPa 1.27 mm - 2 W/m² -
1788475564 21.67° C 97% 1010.3 hPa 1.78 mm - 2 W/m² -
1788475260 21.67° C 97% 1010.3 hPa 3.05 mm - 2 W/m² -
1788474987 21.67° C 97% 1010.5 hPa 6.1 mm - 2 W/m² -
1788474653 21.67° C 96% 1010.6 hPa 6.1 mm - 2 W/m² -
1788474348 21.67° C 96% 1010.5 hPa 3.05 mm - 2 W/m² -
1788474047 21.67° C 96% 1010.3 hPa 19.81 mm - 2 W/m² -
1788473743 21.67° C 96% 1010.2 hPa 68.33 mm - 2 W/m² -
1788473441 21.67° C 95% 1009.9 hPa 67.31 mm - 2 W/m² -
1788473140 22.22° C 92% 1010.8 hPa 22.86 mm - 1 W/m² -
1788472839 22.78° C 88% 1009.7 hPa 1.27 mm - 0 W/m² -
1788472534 23.89° C 84% 1008.9 hPa 0 mm - 1 W/m² -
1788472232 26.67° C 79% 1009 hPa 0 mm - 0 W/m² -
1788471927 27.22° C 82% 1007.8 hPa 0 mm - 2 W/m² -
1788471622 27.78° C 80% 1007.5 hPa 0 mm - 4 W/m² -
1788471318 27.78° C 78% 1007.6 hPa 0 mm - 3 W/m² -
1788471013 27.78° C 77% 1007.5 hPa 0 mm - 4 W/m² -
1788470708 27.78° C 74% 1007.8 hPa 0 mm - 5 W/m² -
1788470404 27.78° C 73% 1007.7 hPa 0 mm - 6 W/m² -
1788470098 27.78° C 72% 1007.4 hPa 0 mm - 7 W/m² -
1788469795 28.33° C 71% 1007.2 hPa 0 mm - 7 W/m² -
1788469494 28.33° C 72% 1006.3 hPa 0 mm - 12 W/m² -
1788469190 28.33° C 72% 1006.6 hPa 0 mm - 16 W/m² -

* Rain latest hour (hover to see other rain measurements)
** Current wind speed in m/s (hover to see current wind gust speed)